Time,TemperatureF,DewpointF,PressureIn,WindDirection,WindDirectionDegrees,WindSpeedMPH,WindSpeedGustMPH,Humidity,HourlyPrecipIn,Conditions,Clouds,dailyrainin,SoftwareType,DateUTC
2013-06-06 00:02:00,80.0,75.0,29.81,SSE,152,1.0,3.0,86,0.00,,,0.00,,2013-06-06 05:02:00,
2013-06-06 00:12:00,80.0,76.0,29.82,ESE,119,0.0,5.0,88,0.00,,,0.00,,2013-06-06 05:12:00,
2013-06-06 00:22:00,80.0,76.0,29.82,ESE,119,0.0,5.0,88,0.00,,,0.00,,2013-06-06 05:22:00,
2013-06-06 00:32:00,80.0,76.0,29.82,SSE,167,0.0,3.0,88,0.00,,,0.00,,2013-06-06 05:32:00,
2013-06-06 00:42:00,80.0,76.0,29.82,SSE,167,0.0,3.0,88,0.00,,,0.00,,2013-06-06 05:42:00,
2013-06-06 00:52:00,80.0,76.0,29.82,SSE,165,0.0,2.0,88,0.00,,,0.00,,2013-06-06 05:52:00,
2013-06-06 01:02:00,80.0,76.0,29.82,SSE,165,0.0,2.0,88,0.00,,,0.00,,2013-06-06 06:02:00,
2013-06-06 01:12:00,79.0,75.0,29.81,SSE,165,0.0,0.0,89,0.00,,,0.00,,2013-06-06 06:12:00,
2013-06-06 01:22:00,79.0,75.0,29.81,SSE,165,0.0,0.0,89,0.00,,,0.00,,2013-06-06 06:22:00,
2013-06-06 01:32:00,79.0,76.0,29.82,SSE,165,0.0,0.0,90,0.00,,,0.00,,2013-06-06 06:32:00,
2013-06-06 01:42:00,79.0,76.0,29.82,SSE,165,0.0,0.0,90,0.00,,,0.00,,2013-06-06 06:42:00,
2013-06-06 01:52:00,79.0,76.0,29.80,SE,145,0.0,2.0,92,0.00,,,0.00,,2013-06-06 06:52:00,
2013-06-06 02:02:00,79.0,77.0,29.80,SE,144,1.0,5.0,93,0.00,,,0.00,,2013-06-06 07:02:00,
2013-06-06 02:12:00,79.0,77.0,29.80,SE,144,1.0,5.0,93,0.00,,,0.00,,2013-06-06 07:12:00,
2013-06-06 02:22:00,79.0,77.0,29.80,SE,144,1.0,5.0,93,0.00,,,0.00,,2013-06-06 07:22:00,
2013-06-06 02:32:00,78.0,76.0,29.78,SSE,165,2.0,5.0,94,0.00,,,0.00,,2013-06-06 07:32:00,
2013-06-06 02:42:00,78.0,76.0,29.78,SSE,165,2.0,5.0,94,0.00,,,0.00,,2013-06-06 07:42:00,
2013-06-06 02:52:00,78.0,76.0,29.78,SSE,165,2.0,5.0,94,0.00,,,0.00,,2013-06-06 07:52:00,
2013-06-06 03:02:00,78.0,76.0,29.79,SE,140,2.0,7.0,95,0.00,,,0.00,,2013-06-06 08:02:00,
2013-06-06 03:12:00,78.0,76.0,29.80,SSE,160,0.0,5.0,95,0.00,,,0.00,,2013-06-06 08:12:00,
2013-06-06 03:22:00,78.0,76.0,29.80,SSE,160,0.0,5.0,95,0.00,,,0.00,,2013-06-06 08:22:00,
2013-06-06 03:32:00,77.0,75.0,29.78,SSE,160,0.0,0.0,94,0.00,,,0.00,,2013-06-06 08:32:00,
2013-06-06 03:42:00,77.0,75.0,29.78,SSE,160,0.0,0.0,95,0.00,,,0.00,,2013-06-06 08:42:00,
2013-06-06 03:52:00,77.0,75.0,29.78,SSE,160,0.0,0.0,95,0.00,,,0.00,,2013-06-06 08:52:00,
2013-06-06 04:02:00,77.0,75.0,29.78,SSE,160,0.0,0.0,95,0.00,,,0.00,,2013-06-06 09:02:00,
2013-06-06 04:12:00,77.0,75.0,29.78,SSE,160,0.0,0.0,95,0.00,,,0.00,,2013-06-06 09:12:00,
2013-06-06 04:22:00,77.0,75.0,29.78,SSE,160,0.0,0.0,95,0.00,,,0.00,,2013-06-06 09:22:00,
2013-06-06 04:33:00,76.0,75.0,29.79,SSE,160,0.0,0.0,96,0.00,,,0.00,,2013-06-06 09:33:00,
2013-06-06 04:43:00,76.0,75.0,29.79,SSE,160,0.0,0.0,96,0.00,,,0.00,,2013-06-06 09:43:00,
2013-06-06 04:53:00,76.0,75.0,29.78,SSE,160,0.0,0.0,96,0.00,,,0.00,,2013-06-06 09:53:00,
2013-06-06 05:03:00,76.0,75.0,29.78,SSE,160,0.0,0.0,96,0.00,,,0.00,,2013-06-06 10:03:00,
2013-06-06 05:12:00,75.0,74.0,29.78,SSE,160,0.0,0.0,96,0.00,,,0.00,,2013-06-06 10:12:00,
2013-06-06 05:22:00,75.0,74.0,29.78,SSE,160,0.0,0.0,96,0.00,,,0.00,,2013-06-06 10:22:00,
2013-06-06 05:33:00,75.0,74.0,29.77,SSE,160,0.0,0.0,97,0.00,,,0.00,,2013-06-06 10:33:00,
2013-06-06 05:42:00,75.0,74.0,29.77,SSE,160,0.0,0.0,97,0.00,,,0.00,,2013-06-06 10:42:00,
2013-06-06 05:53:00,75.0,74.0,29.77,SSE,160,0.0,0.0,97,0.00,,,0.00,,2013-06-06 10:53:00,
2013-06-06 06:02:00,75.0,74.0,29.78,SSE,160,0.0,0.0,97,0.00,,,0.00,,2013-06-06 11:02:00,
2013-06-06 06:12:00,75.0,74.0,29.78,SSE,160,0.0,0.0,97,0.00,,,0.00,,2013-06-06 11:12:00,
2013-06-06 06:22:00,75.0,74.0,29.78,SSE,160,0.0,0.0,97,0.00,,,0.00,,2013-06-06 11:22:00,
2013-06-06 06:32:00,75.0,74.0,29.81,North,11,0.0,2.0,97,0.00,,,0.00,,2013-06-06 11:32:00,
2013-06-06 06:42:00,75.0,74.0,29.81,North,11,0.0,2.0,97,0.00,,,0.00,,2013-06-06 11:42:00,
2013-06-06 06:52:00,75.0,74.0,29.80,North,11,0.0,0.0,97,0.00,,,0.00,,2013-06-06 11:52:00,
2013-06-06 07:02:00,75.0,74.0,29.80,North,11,0.0,0.0,97,0.00,,,0.00,,2013-06-06 12:02:00,
2013-06-06 07:12:00,75.0,74.0,29.80,North,11,0.0,0.0,97,0.00,,,0.00,,2013-06-06 12:12:00,
2013-06-06 07:22:00,75.0,74.0,29.80,North,11,0.0,0.0,97,0.00,,,0.00,,2013-06-06 12:22:00,
2013-06-06 07:32:00,76.0,75.0,29.80,North,11,0.0,0.0,97,0.00,,,0.00,,2013-06-06 12:32:00,
2013-06-06 07:42:00,77.0,76.0,29.81,North,11,0.0,0.0,97,0.00,,,0.00,,2013-06-06 12:42:00,
2013-06-06 07:53:00,77.0,76.0,29.81,North,11,0.0,0.0,97,0.00,,,0.00,,2013-06-06 12:53:00,
2013-06-06 08:03:00,77.0,76.0,29.81,North,11,0.0,0.0,97,0.00,,,0.00,,2013-06-06 13:03:00,
2013-06-06 08:12:00,80.0,77.0,29.82,NNE,32,0.0,2.0,91,0.00,,,0.00,,2013-06-06 13:12:00,
2013-06-06 08:22:00,80.0,77.0,29.82,NNE,32,0.0,2.0,91,0.00,,,0.00,,2013-06-06 13:22:00,
2013-06-06 08:32:00,81.0,77.0,29.82,North,8,0.0,5.0,88,0.00,,,0.00,,2013-06-06 13:32:00,
2013-06-06 08:40:00,82.0,76.0,29.82,NNE,20,0.0,2.0,83,0.00,,,0.00,,2013-06-06 13:40:00,
2013-06-06 08:42:00,82.0,77.0,29.82,NNE,14,1.0,2.0,84,0.00,,,0.00,,2013-06-06 13:42:00,
2013-06-06 08:53:00,82.0,77.0,29.82,NNE,14,1.0,2.0,84,0.00,,,0.00,,2013-06-06 13:53:00,
2013-06-06 09:03:00,82.0,76.0,29.82,NNE,20,0.0,2.0,83,0.00,,,0.00,,2013-06-06 14:03:00,
2013-06-06 09:12:00,82.0,76.0,29.82,NNE,20,0.0,2.0,83,0.00,,,0.00,,2013-06-06 14:12:00,
2013-06-06 09:22:00,82.0,76.0,29.82,NNE,20,0.0,2.0,83,0.00,,,0.00,,2013-06-06 14:22:00,
2013-06-06 09:33:00,82.0,76.0,29.82,NNE,20,0.0,2.0,83,0.00,,,0.00,,2013-06-06 14:33:00,
2013-06-06 09:53:00,84.0,75.0,29.79,North,6,0.0,0.0,75,0.00,,,0.00,,2013-06-06 14:53:00,
2013-06-06 10:03:00,87.0,76.0,29.78,NNW,336,0.0,3.0,69,0.00,,,0.00,,2013-06-06 15:03:00,
2013-06-06 10:13:00,86.0,75.0,29.77,NNW,337,0.0,1.0,71,0.00,,,0.00,,2013-06-06 15:13:00,
2013-06-06 10:23:00,86.0,75.0,29.77,NNW,337,0.0,1.0,71,0.00,,,0.00,,2013-06-06 15:23:00,
2013-06-06 10:33:00,87.0,78.0,29.76,WSW,246,0.0,2.0,74,0.00,,,0.00,,2013-06-06 15:33:00,
2013-06-06 10:43:00,87.0,78.0,29.76,WSW,246,0.0,2.0,74,0.00,,,0.00,,2013-06-06 15:43:00,
2013-06-06 10:52:00,86.0,76.0,29.75,South,184,1.0,3.0,72,0.00,,,0.00,,2013-06-06 15:52:00,
2013-06-06 11:03:00,87.0,76.0,29.75,WNW,294,1.0,2.0,70,0.00,,,0.00,,2013-06-06 16:03:00,
2013-06-06 11:12:00,87.0,76.0,29.75,WNW,294,1.0,2.0,70,0.00,,,0.00,,2013-06-06 16:12:00,
2013-06-06 11:23:00,87.0,76.0,29.75,SW,232,0.0,2.0,70,0.00,,,0.00,,2013-06-06 16:23:00,
2013-06-06 11:33:00,87.0,76.0,29.75,West,274,0.0,2.0,69,0.00,,,0.00,,2013-06-06 16:33:00,
2013-06-06 11:43:00,87.0,76.0,29.75,West,274,0.0,2.0,69,0.00,,,0.00,,2013-06-06 16:43:00,
2013-06-06 11:53:00,88.0,76.0,29.76,NNW,342,1.0,5.0,68,0.00,,,0.00,,2013-06-06 16:53:00,
2013-06-06 12:03:00,89.0,77.0,29.77,North,0,1.0,3.0,67,0.00,,,0.00,,2013-06-06 17:03:00,
2013-06-06 12:13:00,90.0,75.0,29.77,SSE,153,0.0,7.0,61,0.00,,,0.00,,2013-06-06 17:13:00,
2013-06-06 12:22:00,90.0,75.0,29.77,SSE,153,0.0,7.0,61,0.00,,,0.00,,2013-06-06 17:22:00,
2013-06-06 12:32:00,88.0,75.0,29.76,North,351,0.0,2.0,65,0.00,,,0.00,,2013-06-06 17:32:00,
2013-06-06 12:42:00,88.0,75.0,29.76,North,351,0.0,2.0,65,0.00,,,0.00,,2013-06-06 17:42:00,
2013-06-06 12:52:00,87.0,76.0,29.76,NNE,26,2.0,6.0,69,0.00,,,0.00,,2013-06-06 17:52:00,
2013-06-06 13:03:00,86.0,75.0,29.75,ESE,113,6.0,12.0,71,0.00,,,0.00,,2013-06-06 18:03:00,
2013-06-06 13:13:00,86.0,75.0,29.75,ESE,113,6.0,12.0,71,0.00,,,0.00,,2013-06-06 18:13:00,
2013-06-06 13:23:00,80.0,71.0,29.75,ESE,104,7.0,16.0,75,0.06,,,0.06,,2013-06-06 18:23:00,
2013-06-06 13:33:00,77.0,72.0,29.76,East,85,6.0,9.0,85,0.12,,,0.12,,2013-06-06 18:33:00,
2013-06-06 14:34:00,71.0,70.0,29.78,WSW,244,1.0,2.0,97,0.29,,,1.04,,2013-06-06 19:34:00,
2013-06-06 14:53:00,71.0,70.0,29.79,WSW,258,0.0,2.0,97,0.03,,,1.04,,2013-06-06 19:53:00,
2013-06-06 15:03:00,71.0,70.0,29.79,WSW,257,1.0,6.0,97,0.01,,,1.05,,2013-06-06 20:03:00,
2013-06-06 15:13:00,71.0,70.0,29.79,WSW,257,1.0,6.0,97,0.01,,,1.05,,2013-06-06 20:13:00,
2013-06-06 15:22:00,71.0,70.0,29.79,WSW,257,1.0,6.0,97,0.01,,,1.05,,2013-06-06 20:22:00,
2013-06-06 15:33:00,72.0,71.0,29.79,SSW,199,0.0,0.0,97,0.01,,,1.05,,2013-06-06 20:33:00,
2013-06-06 15:42:00,72.0,71.0,29.79,SSW,199,0.0,0.0,97,0.01,,,1.05,,2013-06-06 20:42:00,
2013-06-06 15:52:00,72.0,71.0,29.80,SSW,199,0.0,0.0,97,0.02,,,1.06,,2013-06-06 20:52:00,
2013-06-06 16:03:00,72.0,71.0,29.82,West,259,2.0,3.0,96,0.01,,,1.06,,2013-06-06 21:03:00,
2013-06-06 16:12:00,72.0,71.0,29.82,West,259,2.0,3.0,96,0.01,,,1.06,,2013-06-06 21:12:00,
2013-06-06 16:22:00,72.0,71.0,29.82,West,259,2.0,3.0,96,0.01,,,1.06,,2013-06-06 21:22:00,
2013-06-06 16:33:00,72.0,71.0,29.78,SW,214,1.0,6.0,96,0.05,,,1.10,,2013-06-06 21:33:00,
2013-06-06 16:43:00,72.0,71.0,29.78,SW,214,1.0,6.0,96,0.05,,,1.10,,2013-06-06 21:43:00,
2013-06-06 16:53:00,72.0,71.0,29.78,SW,214,1.0,6.0,96,0.05,,,1.10,,2013-06-06 21:53:00,
2013-06-06 17:03:00,72.0,71.0,29.77,SW,215,1.0,7.0,97,0.06,,,1.12,,2013-06-06 22:03:00,
2013-06-06 17:13:00,71.0,70.0,29.74,South,179,4.0,12.0,96,0.08,,,1.16,,2013-06-06 22:13:00,
2013-06-06 17:23:00,71.0,70.0,29.74,South,179,4.0,12.0,96,0.08,,,1.16,,2013-06-06 22:23:00,
2013-06-06 17:33:00,72.0,71.0,29.74,South,176,2.0,8.0,97,0.08,,,1.17,,2013-06-06 22:33:00,
2013-06-06 17:43:00,72.0,71.0,29.74,South,176,2.0,8.0,97,0.08,,,1.17,,2013-06-06 22:43:00,
2013-06-06 17:53:00,72.0,71.0,29.72,WNW,292,0.0,0.0,97,0.06,,,1.17,,2013-06-06 22:53:00,
2013-06-06 18:02:00,72.0,71.0,29.72,WNW,292,0.0,0.0,97,0.05,,,1.17,,2013-06-06 23:02:00,
2013-06-06 18:12:00,72.0,71.0,29.69,SE,135,0.0,3.0,97,0.03,,,1.17,,2013-06-06 23:12:00,
2013-06-06 18:22:00,72.0,71.0,29.69,SE,135,0.0,3.0,97,0.03,,,1.17,,2013-06-06 23:22:00,
2013-06-06 18:33:00,72.0,71.0,29.69,SE,135,0.0,3.0,97,0.03,,,1.17,,2013-06-06 23:33:00,
2013-06-06 18:42:00,72.0,71.0,29.69,SE,135,0.0,3.0,97,0.03,,,1.17,,2013-06-06 23:42:00,
2013-06-06 18:52:00,75.0,73.0,29.70,NE,41,3.0,8.0,95,0.00,,,1.17,,2013-06-06 23:52:00,
2013-06-06 19:02:00,75.0,73.0,29.70,NE,34,3.0,9.0,95,0.00,,,1.17,,2013-06-07 00:02:00,
2013-06-06 19:12:00,75.0,73.0,29.70,NE,34,3.0,9.0,95,0.00,,,1.17,,2013-06-07 00:12:00,
2013-06-06 19:22:00,75.0,73.0,29.73,NW,322,1.0,9.0,95,0.00,,,1.17,,2013-06-07 00:22:00,
2013-06-06 19:32:00,75.0,73.0,29.73,NW,322,1.0,9.0,95,0.00,,,1.17,,2013-06-07 00:32:00,
2013-06-06 19:42:00,75.0,73.0,29.73,NW,322,1.0,9.0,95,0.00,,,1.17,,2013-06-07 00:42:00,
2013-06-06 19:52:00,74.0,73.0,29.76,NW,311,1.0,6.0,96,0.00,,,1.17,,2013-06-07 00:52:00,
2013-06-06 20:02:00,74.0,73.0,29.76,NW,311,1.0,6.0,96,0.00,,,1.17,,2013-06-07 01:02:00,
2013-06-06 20:12:00,74.0,73.0,29.79,NNE,12,2.0,3.0,96,0.00,,,1.17,,2013-06-07 01:12:00,
2013-06-06 20:22:00,74.0,73.0,29.79,NNE,12,2.0,3.0,96,0.00,,,1.17,,2013-06-07 01:22:00,
2013-06-06 20:33:00,74.0,73.0,29.79,NNE,12,2.0,3.0,96,0.00,,,1.17,,2013-06-07 01:33:00,
2013-06-06 20:42:00,74.0,73.0,29.79,NNE,12,2.0,3.0,96,0.00,,,1.17,,2013-06-07 01:42:00,
2013-06-06 20:52:00,73.0,72.0,29.81,NNW,339,0.0,2.0,96,0.00,,,1.17,,2013-06-07 01:52:00,
2013-06-06 21:02:00,73.0,72.0,29.81,NNW,339,0.0,2.0,96,0.00,,,1.17,,2013-06-07 02:02:00,
2013-06-06 21:12:00,73.0,72.0,29.81,NNW,339,0.0,2.0,96,0.00,,,1.17,,2013-06-07 02:12:00,
2013-06-06 21:22:00,73.0,72.0,29.85,NW,312,5.0,9.0,97,0.11,,,1.28,,2013-06-07 02:22:00,
2013-06-06 21:32:00,73.0,72.0,29.85,NW,312,5.0,9.0,97,0.11,,,1.28,,2013-06-07 02:32:00,
2013-06-06 21:42:00,73.0,72.0,29.85,NW,312,5.0,9.0,97,0.11,,,1.28,,2013-06-07 02:42:00,
2013-06-06 21:52:00,72.0,71.0,29.83,North,10,0.0,9.0,97,0.18,,,1.35,,2013-06-07 02:52:00,
2013-06-06 22:02:00,71.0,70.0,29.85,West,267,1.0,7.0,97,0.22,,,1.39,,2013-06-07 03:02:00,
2013-06-06 22:12:00,71.0,70.0,29.84,West,267,0.0,0.0,97,0.24,,,1.41,,2013-06-07 03:12:00,
2013-06-06 22:22:00,71.0,70.0,29.84,West,267,0.0,0.0,97,0.24,,,1.41,,2013-06-07 03:22:00,
2013-06-06 22:33:00,70.0,69.0,29.85,West,267,0.0,0.0,97,0.11,,,1.45,,2013-06-07 03:33:00,
2013-06-06 22:43:00,70.0,69.0,29.85,West,267,0.0,0.0,97,0.11,,,1.45,,2013-06-07 03:43:00,
2013-06-06 22:53:00,70.0,69.0,29.84,SE,140,0.0,6.0,98,0.13,,,1.50,,2013-06-07 03:53:00,
2013-06-06 23:03:00,70.0,69.0,29.83,SE,127,0.0,0.0,98,0.11,,,1.52,,2013-06-07 04:03:00,
2013-06-06 23:12:00,70.0,69.0,29.83,SE,127,0.0,0.0,98,0.11,,,1.52,,2013-06-07 04:12:00,
2013-06-06 23:22:00,70.0,69.0,29.83,SE,127,0.0,0.0,98,0.11,,,1.52,,2013-06-07 04:22:00,
2013-06-06 23:33:00,70.0,69.0,29.84,SE,127,0.0,0.0,98,0.04,,,1.52,,2013-06-07 04:33:00,
2013-06-06 23:42:00,70.0,69.0,29.84,SE,127,0.0,0.0,98,0.04,,,1.52,,2013-06-07 04:42:00,
2013-06-06 23:53:00,70.0,69.0,29.84,SE,127,0.0,0.0,98,0.04,,,1.52,,2013-06-07 04:53:00,